Pisa, Italy

6:12 PM CET on December 11, 2017 (GMT +0100)
San Giusto

Weather History for LIRP - October, 2017

Change the Weather History Date:

Friday, October 13, 2017

  Actual Average Record
Temperature  
Mean Temperature 62 °F -  
Max Temperature 73 °F 66 °F 80 °F (2001)
Min Temperature 52 °F 48 °F 44 °F (1998)
Degree Days  
Heating Degree Days 2    
Growing Degree Days 12 (Base 50)    
Moisture  
Dew Point 57 °F    
Average Humidity 87    
Maximum Humidity 100    
Minimum Humidity 55    
Precipitation  
Precipitation 0.00 in 0.16 in - ()
Sea Level Pressure  
Sea Level Pressure 30.32 in    
Wind  
Wind Speed 4 mph ()    
Max Wind Speed 10 mph    
Max Gust Speed -    
Visibility 3.7 miles    
Events Fog    
Averages and records for this station are not official NWS values.
T = Trace of Precipitation, MM = Missing Value Source: Averaged Metar Reports

Daily Weather History Graph

Daily Weather History Graph

Search for Another Location

Airport or City:

Trip Planner

Search our weather history database for the weather conditions in past years. The results will help you decide how hot, cold, wet, or windy it might be!

Date:

Astronomy

Oct. 13, 2017 Rise Set
Actual Time 7:30 AM CEST 6:38 PM CEST
Civil Twilight 7:01 AM CEST 7:07 PM CEST
Nautical Twilight 6:28 AM CEST 7:40 PM CEST
Astronomical Twilight 5:54 AM CEST 8:13 PM CEST
Moon 12:23 AM CEST (10/13) 3:22 PM CEST (10/13)
Length of Visible Light 12h 05m
Length of Day
11h 08m
Last Quarter, 40% of the Moon is Illuminated
Oct 13
Last Quarter
Oct 19
New
Oct 28
First Quarter
Nov 4
Full
Nov 10
Last Quarter

Hourly Weather History & Observations

Time (CEST) Temp. Dew Point Humidity Pressure Visibility Wind Dir Wind Speed Gust Speed Precip Events Conditions
12:15 AM 57.2 °F 57.2 °F 100% 30.33 in 1.2 mi East 3.5 mph - N/A Fog Patches of Fog
12:45 AM 57.2 °F 55.4 °F 94% 30.33 in 1.2 mi East 3.5 mph - N/A Fog Patches of Fog
1:15 AM 55.4 °F 55.4 °F 100% 30.33 in 1.2 mi East 2.3 mph - N/A Fog Patches of Fog
1:45 AM 55.4 °F 55.4 °F 100% 30.30 in 1.2 mi ESE 3.5 mph - N/A Fog Patches of Fog
2:00 AM 55 °F 54 °F 98% 30.33 in 0 mi ESE 3.5 mph - - Fog Patches of Fog
2:15 AM 55.4 °F 55.4 °F 100% 30.30 in 1.2 mi SE 3.5 mph - N/A Fog Patches of Fog
2:45 AM 53.6 °F 53.6 °F 100% 30.30 in 1.9 mi East 4.6 mph - N/A   Scattered Clouds
3:15 AM 53.6 °F 53.6 °F 100% 30.30 in 1.9 mi ESE 4.6 mph - N/A   Scattered Clouds
3:45 AM 53.6 °F 53.6 °F 100% 30.30 in 1.9 mi SSE 3.5 mph - N/A Fog Patches of Fog
4:15 AM 53.6 °F 53.6 °F 100% 30.30 in 1.9 mi East 3.5 mph - N/A   Scattered Clouds
4:45 AM 53.6 °F 53.6 °F 100% 30.30 in 1.9 mi ESE 3.5 mph - N/A   Scattered Clouds
5:00 AM 54 °F 53 °F 94% 30.32 in 2 mi ESE 3.5 mph - -   Mist
5:15 AM 53.6 °F 53.6 °F 100% 30.30 in 1.6 mi East 3.5 mph - N/A   Scattered Clouds
5:45 AM 53.6 °F 53.6 °F 100% 30.30 in 1.2 mi SSE 2.3 mph - N/A Fog Patches of Fog
6:15 AM 53.6 °F 53.6 °F 100% 30.30 in 1.9 mi ESE 3.5 mph - N/A   Mostly Cloudy
6:45 AM 53.6 °F 53.6 °F 100% 30.30 in 2.5 mi ESE 4.6 mph - N/A   Mostly Cloudy
7:15 AM 53.6 °F 51.8 °F 94% 30.30 in 2.5 mi East 6.9 mph - N/A   Scattered Clouds
7:45 AM 53.6 °F 53.6 °F 100% 30.33 in 3.1 mi SE 4.6 mph - N/A   Scattered Clouds
8:00 AM 54 °F 53 °F 94% 30.33 in 3 mi SE 4.6 mph - -   Mist
8:15 AM 53.6 °F 53.6 °F 100% 30.33 in 3.1 mi SE 3.5 mph - N/A   Scattered Clouds
8:45 AM 57.2 °F 55.4 °F 94% 30.33 in 4.3 mi ESE 4.6 mph - N/A   Scattered Clouds
9:15 AM 57.2 °F 57.2 °F 100% 30.33 in 5.0 mi SE 4.6 mph - N/A   Scattered Clouds
9:45 AM 59.0 °F 57.2 °F 94% 30.33 in 6.2 mi ESE 3.5 mph - N/A   Scattered Clouds
10:15 AM 60.8 °F 59.0 °F 94% 30.36 in 6.2 mi ESE 4.6 mph - N/A   Partly Cloudy
10:45 AM 64.4 °F 59.0 °F 83% 30.36 in 6.2 mi ESE 5.8 mph - N/A   Partly Cloudy
11:00 AM 64 °F 60 °F 82% 30.36 in 9 mi ESE 5.8 mph - -   Scattered Clouds
11:15 AM 66.2 °F 59.0 °F 78% 30.36 in - East 5.8 mph - N/A   Clear
11:45 AM 68.0 °F 59.0 °F 73% 30.36 in - East 4.6 mph - N/A   Clear
12:15 PM 68.0 °F 59.0 °F 73% 30.36 in 6.2 mi NNE 2.3 mph - N/A   Partly Cloudy
12:45 PM 69.8 °F 60.8 °F 73% 30.36 in 6.2 mi Variable 3.5 mph - N/A   Partly Cloudy
1:15 PM 71.6 °F 60.8 °F 69% 30.36 in 6.2 mi WNW 4.6 mph - N/A   Scattered Clouds
1:45 PM 71.6 °F 59.0 °F 64% 30.33 in 6.2 mi West 4.6 mph - N/A   Scattered Clouds
2:00 PM 72 °F 60 °F 56% 30.35 in 9 mi West 4.6 mph - -   Partly Cloudy
2:15 PM 71.6 °F 59.0 °F 64% 30.33 in 6.2 mi NW 8.1 mph - N/A   Partly Cloudy
2:45 PM 71.6 °F 57.2 °F 60% 30.33 in 6.2 mi WNW 8.1 mph - N/A   Partly Cloudy
3:15 PM 71.6 °F 57.2 °F 60% 30.30 in - WNW 9.2 mph - N/A   Clear
3:45 PM 71.6 °F 57.2 °F 60% 30.30 in - WNW 10.4 mph - N/A   Clear
4:15 PM 71.6 °F 57.2 °F 60% 30.30 in - NW 10.4 mph - N/A   Clear
4:45 PM 69.8 °F 59.0 °F 68% 30.30 in - West 9.2 mph - N/A   Clear
5:00 PM 71 °F 58 °F 55% 30.32 in 19 mi West 9.2 mph - -  
5:15 PM 69.8 °F 59.0 °F 68% 30.30 in - WNW 8.1 mph - N/A   Clear
5:45 PM 69.8 °F 60.8 °F 73% 30.30 in - West 8.1 mph - N/A   Clear
6:15 PM 68.0 °F 60.8 °F 78% 30.30 in - WNW 5.8 mph - N/A   Clear
6:45 PM 66.2 °F 60.8 °F 83% 30.30 in - WNW 4.6 mph - N/A   Clear
7:15 PM 64.4 °F 60.8 °F 88% 30.30 in - WNW 3.5 mph - N/A   Clear
7:45 PM 64.4 °F 60.8 °F 88% 30.30 in - WNW 3.5 mph - N/A   Clear
8:00 PM 64 °F 61 °F 88% 30.32 in 9 mi WNW 3.5 mph - -  
8:15 PM 64.4 °F 62.6 °F 94% 30.30 in - West 3.5 mph - N/A   Clear
8:45 PM 62.6 °F 60.8 °F 94% 30.30 in - WNW 3.5 mph - N/A   Clear
9:15 PM 62.6 °F 60.8 °F 94% 30.30 in - WNW 3.5 mph - N/A   Clear
9:45 PM 59.0 °F 57.2 °F 94% 30.33 in 2.5 mi SSW 1.2 mph - N/A Fog Fog
10:15 PM 57.2 °F 57.2 °F 100% 30.33 in 1.2 mi ESE 1.2 mph - N/A Fog Patches of Fog
10:45 PM 57.2 °F 57.2 °F 100% 30.33 in 1.2 mi SSW 1.2 mph - N/A Fog Patches of Fog
11:00 PM 57 °F 57 °F 98% 30.35 in 0 mi SSW 1.2 mph - - Fog Patches of Fog
11:15 PM 53.6 °F 53.6 °F 100% 30.33 in 0.4 mi South 3.5 mph - N/A Fog Fog
11:45 PM 53.6 °F 53.6 °F 100% 30.33 in 0.3 mi SE 2.3 mph - N/A Fog Fog